Date String (YYYY-MM-DD hh:mm:ss) UTC,Instrument flags,absolute air pressure of the measurement (hPa),sample flow rate (lpm),inlet stack bypass flow (lpm),air temperature of the measurement (°C),ambient temperature measured by the external sensor (°C),aerosol sample conditioner tube jacket temperature (°C),OPC LED temperature (°C),internal box temperature (°C),relative humidity of the measurement (%),span deviation,mass concentration of particles derived from Lorenz-Mie calculation of OPC scattering (μg/m³),mass concentration of particles derived from Lorenz-Mie calculation of OPC scattering (μg/m³),mass concentration of particles derived from Lorenz-Mie calculation of OPC scattering (μg/m³)
DateTimeUTC,F1_M11,P_M11,Q1_M11,Q2_M11,T1_M11,T2_M11,T3_M11,T4_M11,T5_M11,U1_M11,ZSPAN_M11,X2_M11,X0_M11,X1_M11
2024-05-21 15:00:00,SystemResetWarning,0824.1,4.99,000.00,026.5,025.8,000.0,034.7,028.3,024.3,0000.0,0001.55,0004.15,0001.18
2024-05-21 15:01:00,SystemResetWarning,0824.1,4.98,000.00,026.5,025.8,000.0,034.7,028.3,024.4,0000.0,0001.59,0003.90,0001.21
2024-05-21 15:02:00,SystemResetWarning,0824.0,5.01,000.00,026.5,025.8,000.0,034.8,028.3,024.0,0000.0,0001.62,0002.53,0001.23
2024-05-21 15:03:00,SystemResetWarning,0824.0,5.01,000.00,026.5,025.9,000.0,034.8,028.3,023.4,0000.0,0001.65,0002.65,0001.24
2024-05-21 15:04:00,SystemResetWarning,0824.0,5.00,000.00,026.6,025.9,000.0,034.8,028.3,024.0,0000.0,0001.66,0002.71,0001.24
2024-05-21 15:05:00,SystemResetWarning,0824.0,4.99,000.00,026.6,025.9,000.0,034.8,028.3,024.6,0000.0,0001.64,0002.66,0001.24
2024-05-21 15:06:00,SystemResetWarning,0824.1,4.99,000.00,026.6,025.9,000.0,034.8,028.3,023.6,0000.0,0001.65,0002.69,0001.25
2024-05-21 15:07:00,SystemResetWarning,0824.2,5.01,000.00,026.6,025.9,000.0,034.8,028.4,023.3,0000.0,0001.69,0002.70,0001.26
2024-05-21 15:08:00,SystemResetWarning,0824.2,5.01,000.00,026.6,025.9,000.0,034.8,028.4,024.4,0000.0,0001.71,0002.70,0001.28
2024-05-21 15:09:00,SystemResetWarning,0824.3,4.99,000.00,026.6,025.9,000.0,034.8,028.4,024.6,0000.0,0001.70,0002.84,0001.27
2024-05-21 15:10:00,SystemResetWarning,0824.3,4.99,000.00,026.6,025.9,000.0,034.8,028.4,024.0,0000.0,0001.68,0002.87,0001.25
2024-05-21 15:11:00,SystemResetWarning,0824.4,5.01,000.00,026.6,025.9,000.0,034.9,028.4,023.9,0000.0,0001.66,0002.80,0001.24
2024-05-21 15:12:00,SystemResetWarning,0824.4,5.01,000.00,026.6,025.9,000.0,034.9,028.4,024.0,0000.0,0001.68,0002.84,0001.23
2024-05-21 15:13:00,SystemResetWarning,0824.4,5.00,000.00,026.7,026.0,000.0,034.9,028.5,024.3,0000.0,0001.71,0002.95,0001.24
2024-05-21 15:14:00,SystemResetWarning,0824.4,4.98,000.00,026.7,026.0,000.0,034.9,028.5,023.8,0000.0,0001.70,0002.88,0001.25
2024-05-21 15:15:00,SystemResetWarning,0824.4,5.00,000.00,026.7,026.0,000.0,034.9,028.5,024.2,0000.0,0001.75,0003.17,0001.27
2024-05-21 15:16:00,SystemResetWarning,0824.4,5.01,000.00,026.7,026.0,000.0,034.9,028.5,023.7,0000.0,0001.76,0003.22,0001.28
2024-05-21 15:17:00,SystemResetWarning,0824.4,4.99,000.00,026.7,026.0,000.0,034.9,028.5,024.0,0000.0,0001.77,0003.17,0001.30
2024-05-21 15:18:00,SystemResetWarning,0824.4,4.99,000.00,026.7,026.0,000.0,034.9,028.5,022.9,0000.0,0001.76,0003.21,0001.30
2024-05-21 15:19:00,SystemResetWarning,0824.4,5.01,000.00,026.7,026.0,000.0,034.9,028.5,023.1,0000.0,0001.74,0003.26,0001.30
2024-05-21 15:20:00,SystemResetWarning,0824.3,5.01,000.00,026.7,026.0,000.0,034.9,028.5,022.6,0000.0,0001.74,0003.20,0001.28
2024-05-21 15:21:00,SystemResetWarning,0824.4,5.00,000.00,026.7,026.0,000.0,035.0,028.5,022.6,0000.0,0001.74,0003.13,0001.27
2024-05-21 15:22:00,SystemResetWarning,0824.3,5.00,000.00,026.7,026.0,000.0,035.0,028.5,022.4,0000.0,0001.74,0003.15,0001.26
2024-05-21 15:23:00,SystemResetWarning,0824.4,4.99,000.00,026.7,026.0,000.0,035.0,028.5,022.6,0000.0,0001.72,0003.06,0001.26
2024-05-21 15:24:00,SystemResetWarning,0824.4,4.99,000.00,026.8,026.1,000.0,035.0,028.5,023.3,0000.0,0001.65,0003.73,0001.24
2024-05-21 15:25:00,SystemResetWarning,0824.4,5.01,000.00,026.8,026.1,000.0,035.0,028.5,023.3,0000.0,0001.67,0003.96,0001.23
2024-05-21 15:26:00,SystemResetWarning,0824.3,5.01,000.00,026.8,026.1,000.0,035.0,028.6,023.2,0000.0,0001.62,0003.68,0001.21
2024-05-21 15:27:00,SystemResetWarning,0824.4,4.99,000.00,026.8,026.1,000.0,035.0,028.6,023.3,0000.0,0001.60,0003.54,0001.21
2024-05-21 15:28:00,SystemResetWarning,0824.3,4.99,000.00,026.8,026.1,000.0,035.0,028.6,024.3,0000.0,0001.58,0003.50,0001.18
2024-05-21 15:29:00,SystemResetWarning,0824.4,5.01,000.00,026.8,026.1,000.0,035.0,028.6,023.7,0000.0,0001.54,0003.41,0001.16
2024-05-21 15:30:00,SystemResetWarning,0824.3,5.01,000.00,026.8,026.1,000.0,035.1,028.6,022.6,0000.0,0001.52,0004.08,0001.14
2024-05-21 15:31:00,SystemResetWarning,0824.3,4.99,000.00,026.8,026.2,000.0,035.1,028.6,022.7,0000.0,0001.51,0006.98,0001.15
2024-05-21 15:32:00,SystemResetWarning,0824.3,4.99,000.00,026.8,026.2,000.0,035.1,028.6,023.0,0000.0,0001.51,0006.97,0001.16
2024-05-21 15:33:00,SystemResetWarning,0824.3,5.01,000.00,026.9,026.2,000.0,035.1,028.7,022.6,0000.0,0001.54,0007.27,0001.15
2024-05-21 15:34:00,SystemResetWarning,0824.3,5.01,000.00,026.9,026.2,000.0,035.1,028.7,022.0,0000.0,0001.52,0007.58,0001.14
2024-05-21 15:35:00,SystemResetWarning,0824.3,4.99,000.00,026.9,026.2,000.0,035.1,028.7,022.2,0000.0,0001.52,0007.09,0001.15
2024-05-21 15:36:00,SystemResetWarning,0824.3,4.99,000.00,026.9,026.2,000.0,035.1,028.7,022.2,0000.0,0001.50,0006.91,0001.16
2024-05-21 15:37:00,SystemResetWarning,0824.3,4.99,000.00,026.9,026.2,000.0,035.1,028.7,021.7,0000.0,0001.50,0006.89,0001.16
2024-05-21 15:38:00,SystemResetWarning,0824.3,5.01,000.00,026.9,026.2,000.0,035.1,028.7,022.0,0000.0,0001.49,0006.88,0001.15
2024-05-21 15:39:00,SystemResetWarning,0824.3,5.01,000.00,026.9,026.3,000.0,035.1,028.7,022.7,0000.0,0001.52,0006.96,0001.14
2024-05-21 15:40:00,SystemResetWarning,0824.3,5.00,000.00,026.9,026.3,000.0,035.1,028.7,022.3,0000.0,0001.53,0007.02,0001.14
2024-05-21 15:41:00,SystemResetWarning,0824.2,4.99,000.00,026.9,026.3,000.0,035.2,028.7,022.2,0000.0,0001.54,0006.98,0001.14
2024-05-21 15:42:00,SystemResetWarning,0824.2,5.01,000.00,027.0,026.3,000.0,035.2,028.7,021.2,0000.0,0001.51,0003.36,0001.13
2024-05-21 15:43:00,SystemResetWarning,0824.2,5.01,000.00,027.0,026.3,000.0,035.2,028.7,022.0,0000.0,0001.50,0003.30,0001.13
2024-05-21 15:44:00,SystemResetWarning,0824.1,4.99,000.00,027.0,026.3,000.0,035.2,028.8,022.2,0000.0,0001.46,0002.85,0001.13
2024-05-21 15:45:00,SystemResetWarning,0824.1,4.99,000.00,027.0,026.3,000.0,035.2,028.8,021.6,0000.0,0001.48,0002.40,0001.14
2024-05-21 15:46:00,SystemResetWarning,0824.2,5.01,000.00,027.0,026.4,000.0,035.2,028.8,020.4,0000.0,0001.46,0002.34,0001.14
2024-05-21 15:47:00,SystemResetWarning,0824.2,5.01,000.00,027.0,026.4,000.0,035.2,028.8,021.1,0000.0,0001.49,0002.23,0001.15
2024-05-21 15:48:00,SystemResetWarning,0824.3,5.01,000.00,027.0,026.4,000.0,035.2,028.8,022.1,0000.0,0001.51,0002.30,0001.16
2024-05-21 15:49:00,SystemResetWarning,0824.3,5.01,000.00,027.1,026.4,000.0,035.2,028.8,022.4,0000.0,0001.53,0002.41,0001.19
2024-05-21 15:50:00,SystemResetWarning,0824.3,4.99,000.00,027.1,026.4,000.0,035.3,028.8,022.3,0000.0,0001.55,0002.40,0001.24
2024-05-21 15:51:00,SystemResetWarning,0824.3,5.00,000.00,027.1,026.4,000.0,035.3,028.8,022.4,0000.0,0001.59,0002.42,0001.30
2024-05-21 15:52:00,SystemResetWarning,0824.2,5.01,000.00,027.1,026.4,000.0,035.3,028.9,022.0,0000.0,0001.62,0002.39,0001.34
2024-05-21 15:53:00,SystemResetWarning,0824.1,5.01,000.00,027.1,026.5,000.0,035.3,028.9,021.8,0000.0,0001.67,0002.46,0001.38
2024-05-21 15:54:00,SystemResetWarning,0824.1,4.99,000.00,027.1,026.5,000.0,035.3,028.9,021.9,0000.0,0001.70,0002.53,0001.41
2024-05-21 15:55:00,SystemResetWarning,0824.1,4.99,000.00,027.1,026.5,000.0,035.3,028.9,021.0,0000.0,0001.77,0002.74,0001.44
2024-05-21 15:56:00,SystemResetWarning,0824.1,5.01,000.00,027.1,026.5,000.0,035.3,028.9,020.6,0000.0,0001.81,0002.81,0001.46
2024-05-21 15:57:00,SystemResetWarning,0824.2,5.01,000.00,027.2,026.5,000.0,035.4,028.9,020.8,0000.0,0001.86,0002.98,0001.47
2024-05-21 15:58:00,SystemResetWarning,0824.2,5.00,000.00,027.2,026.5,000.0,035.4,028.9,020.8,0000.0,0001.84,0002.91,0001.49
2024-05-21 15:59:00,SystemResetWarning,0824.3,5.00,000.00,027.2,026.5,000.0,035.4,028.9,021.6,0000.0,0001.87,0002.92,0001.51
